Observations for Trim Market St
| Time | AQI | Temp °C | Hum % | Pres Pa | CO μg/m³ | H₂S μg/m³ | NO μg/m³ | NO₂ μg/m³ | O₃ μg/m³ | SO₂ μg/m³ | PM1 μg/m³ | PM2.5 μg/m³ | PM10 μg/m³ |
|---|---|---|---|---|---|---|---|---|---|---|---|---|---|
| Thursday 13 August 2026 | |||||||||||||
| 19:59 | 3 | 30.4 | 43 | 65,564 | 0 | 7.94 | 0.49 | 53.36 | 46.49 | 0 | 19.24 | 22.19 | 35.93 |
| 19:58 | 3 | 30.4 | 42 | 65,590 | 0 | 7.81 | 0.49 | 34.38 | 55 | 0 | 3.56 | 5.4 | 8.32 |
| 19:57 | 3 | 30.4 | 42 | 65,623 | 0 | 6.25 | 0.49 | 30.88 | 55.5 | 0 | 0 | 2.78 | 2.78 |
| 19:56 | 3 | 30.5 | 42 | 65,639 | 0 | 5.01 | 0.52 | 31.06 | 54.73 | 0 | 0 | 3.31 | 3.64 |
| 19:55 | 3 | 30.5 | 42 | 65,657 | 0 | 5.65 | 0.52 | 27.23 | 56.79 | 0 | 0 | 3.31 | 3.64 |
| 19:53 | 3 | 30.5 | 42 | 65,711 | 0 | 7.1 | 0.47 | 30.46 | 58.16 | 0 | 0 | 2.8 | 5.15 |
| 19:52 | 3 | 30.6 | 42 | 65,750 | 0 | 5.41 | 0.5 | 43.62 | 50.44 | 0 | 0 | 2.8 | 3.09 |
| 19:50 | 3 | 30.7 | 42 | 65,772 | 0 | 2.45 | 0.47 | 22.85 | 55.82 | 0 | 0.71 | 3.87 | 4.25 |
| 19:48 | 3 | 30.7 | 42 | 65,827 | 0 | 4.84 | 0.44 | 41.67 | 50.67 | 0 | 1.43 | 3.87 | 4.25 |
| 19:46 | 3 | 30.8 | 41 | 65,868 | 0 | 1.18 | 0.34 | 12.18 | 60.42 | 0 | 0 | 2.83 | 3.12 |
| 19:45 | 3 | 30.9 | 41 | 65,892 | 0 | 1.74 | 0.32 | 12.55 | 60.64 | 0 | 0 | 2.84 | 3.12 |
| 19:43 | 3 | 31 | 41 | 65,904 | 0 | 0 | 0.32 | 12.23 | 58 | 0 | 0 | 2.85 | 3.13 |
| 19:42 | 3 | 31 | 41 | 65,906 | 0 | 1.19 | 0.31 | 12.95 | 58.3 | 0 | 0.71 | 3.38 | 3.71 |
| 19:30 | 3 | 31.6 | 41 | 65,902 | 0 | 4.98 | 0.28 | 17.11 | 58.51 | 0 | 0 | 2.86 | 3.14 |
| 19:29 | 3 | 31.6 | 41 | 65,925 | 0 | 6 | 0.28 | 17.97 | 58.7 | 0 | 0 | 2.33 | 2.56 |
| 19:28 | 3 | 31.7 | 40 | 65,931 | 0 | 5.78 | 0.28 | 15.68 | 60.51 | 0 | 0.71 | 3.39 | 3.73 |
| 19:27 | 3 | 31.7 | 40 | 65,966 | 0 | 6.8 | 0.3 | 20.34 | 60.76 | 0 | 0 | 2.86 | 3.15 |
| 19:26 | 3 | 31.7 | 40 | 65,981 | 0 | 7.1 | 0.34 | 18.84 | 59.66 | 0 | 0 | 2.34 | 2.58 |
| 19:25 | 3 | 31.8 | 40 | 65,999 | 0 | 7.04 | 0.33 | 25.84 | 55.34 | 0 | 0.71 | 3.41 | 3.75 |
| 19:24 | 3 | 31.8 | 40 | 66,023 | 0 | 6.63 | 0.33 | 34.38 | 54.14 | 0 | 0 | 2.89 | 3.17 |